Find UniSat-3

NORAD ID: 28373 Int'l Des: 2004-025 Owner: ROGAU Country: I operational
LEOCIRCULARRETROGRADESSO

Current View

Loading 3D Globe...

About UniSat-3

Description loading...

Upcoming Passes

Passes for default location (London). Set your location on the main map for personalized predictions.

Altitude History

Loading altitude history...

Two-Line Element Set

1 28373U 04025H 26150.96188845 .00000677 00000-0 18635-3 0 9993
2 28373 98.6937 160.2957 0066077 45.1536 315.4998 14.49056471156559
Epoch: May 30, 2026 • Age: 12 hours

Current Status

Altitude 700.6 km
Velocity 7.53 km/s
Sub-Earth Point 72.16°N, 78.3°E
Launch Date Jun 29, 2004
Age 21.9 years
Type other

Technical Details

Classification Payload
Mass 12.00 kg
Dry Mass 12.00 kg
Total Mass 12.00 kg
Length 0.30 m
Diameter 0.20 m
Span 0.30 m
Shape Oct Cyl
Manufacturer ROGAU/ROSAP
Bus Type Unisat
Phase Status In Orbit
Owner/State ROGAU/I

Most Searched